N750PT LEJR-LEXJ

Flight info

Callsign N750PT
Flight time N/A
Altitude 34000
Route HIJ Z230 TLD N858 SIE N865 UNGAS Y753 EMANU
Aircraft C750/M-SBDFGHILM3ORVWXYZ/HB1

Departure

Time N/A
Airport Jerez Airport (LEJR)

Arrival

Time 2026-04-24 19:09
Airport Seve Ballesteros-Santander Airport (LEXJ)
Time Latitude Longitude Altitude Speed Heading
2026-04-24 18:54 42.78801 -3.67972 5375 ft 268 kts 21°
2026-04-24 18:55 42.82267 -3.66114 4739 ft 265 kts 22°
2026-04-24 18:55 42.83960 -3.65162 4745 ft 262 kts 22°
2026-04-24 18:55 42.85648 -3.64223 5108 ft 272 kts 22°
2026-04-24 18:56 42.87338 -3.63287 6593 ft 258 kts 22°
2026-04-24 18:56 42.89051 -3.62337 7496 ft 271 kts 21°
2026-04-24 18:56 42.90807 -3.61361 8703 ft 274 kts 21°
2026-04-24 18:56 42.92598 -3.60365 9719 ft 284 kts 21°
2026-04-24 18:57 42.94467 -3.59328 10143 ft 296 kts 21°
2026-04-24 18:57 42.96363 -3.58272 10141 ft 292 kts 21°
2026-04-24 18:57 42.98239 -3.57224 10142 ft 291 kts 21°
2026-04-24 18:57 43.00109 -3.56182 10139 ft 290 kts 21°
2026-04-24 18:58 43.01949 -3.55157 10145 ft 289 kts 21°
2026-04-24 18:58 43.03815 -3.54115 10142 ft 290 kts 21°
2026-04-24 18:58 43.05675 -3.53075 10147 ft 289 kts 21°
2026-04-24 18:58 43.07535 -3.52035 10151 ft 289 kts 21°
2026-04-24 18:59 43.09401 -3.50992 10152 ft 290 kts 21°
2026-04-24 18:59 43.11261 -3.49951 10145 ft 289 kts 21°
2026-04-24 18:59 43.13127 -3.48906 10146 ft 290 kts 21°
2026-04-24 18:59 43.14989 -3.47862 10150 ft 289 kts 21°
2026-04-24 19:00 43.16823 -3.46832 9739 ft 282 kts 21°
2026-04-24 19:00 43.18625 -3.45820 8931 ft 284 kts 21°
2026-04-24 19:00 43.20444 -3.44798 8284 ft 280 kts 20°
2026-04-24 19:00 43.22234 -3.43793 7654 ft 276 kts 20°
2026-04-24 19:01 43.24005 -3.42798 6978 ft 275 kts 21°
2026-04-24 19:01 43.25768 -3.41806 6335 ft 273 kts 21°
2026-04-24 19:01 43.27513 -3.40822 5657 ft 269 kts 20°
2026-04-24 19:01 43.29293 -3.40136 4862 ft 267 kts
2026-04-24 19:02 43.30492 -3.40404 4374 ft 263 kts 338°
2026-04-24 19:02 43.32154 -3.42680 4244 ft 255 kts 297°
2026-04-24 19:02 43.32813 -3.44908 4274 ft 254 kts 290°
2026-04-24 19:02 43.33414 -3.47194 4288 ft 252 kts 290°
2026-04-24 19:03 43.33991 -3.49355 4261 ft 224 kts 291°
2026-04-24 19:03 43.34502 -3.51266 4252 ft 207 kts 290°
2026-04-24 19:03 43.34993 -3.53103 4172 ft 197 kts 290°
2026-04-24 19:03 43.35443 -3.54790 3913 ft 179 kts 291°
2026-04-24 19:04 43.35850 -3.56328 3728 ft 166 kts 290°
2026-04-24 19:04 43.36245 -3.57813 3479 ft 164 kts 290°
2026-04-24 19:04 43.36625 -3.59232 3274 ft 160 kts 290°
2026-04-24 19:04 43.37018 -3.60706 3060 ft 167 kts 290°
2026-04-24 19:05 43.37417 -3.62204 2853 ft 166 kts 289°
2026-04-24 19:05 43.37796 -3.63619 2626 ft 156 kts 289°
2026-04-24 19:05 43.38150 -3.64934 2429 ft 134 kts 289°
2026-04-24 19:05 43.38445 -3.66032 2256 ft 113 kts 288°
2026-04-24 19:06 43.38704 -3.67001 2113 ft 106 kts 288°
2026-04-24 19:06 43.38956 -3.67946 1994 ft 106 kts 288°
2026-04-24 19:06 43.39216 -3.68920 1849 ft 110 kts 288°
2026-04-24 19:06 43.39480 -3.69906 1709 ft 110 kts 287°
2026-04-24 19:07 43.39748 -3.70914 1525 ft 113 kts 287°
2026-04-24 19:07 43.40016 -3.71921 1388 ft 113 kts 288°
2026-04-24 19:07 43.40196 -3.72591 1287 ft 113 kts 288°
2026-04-24 19:07 43.40558 -3.73949 1079 ft 113 kts 289°
2026-04-24 19:08 43.40839 -3.74990 893 ft 118 kts 288°
2026-04-24 19:08 43.41117 -3.76068 719 ft 121 kts 287°
2026-04-24 19:08 43.41404 -3.77139 582 ft 122 kts 289°
2026-04-24 19:08 43.41698 -3.78237 452 ft 122 kts 290°
2026-04-24 19:09 43.41989 -3.79327 293 ft 117 kts 290°
2026-04-24 19:09 43.42262 -3.80365 104 ft 113 kts 289°
2026-04-24 19:09 43.42524 -3.81335 22 ft 99 kts 290°
2026-04-24 19:09 43.42696 -3.81966 15 ft 44 kts 288°
2026-04-24 19:10 43.42733 -3.82203 14 ft 12 kts 246°
2026-04-24 19:10 43.42698 -3.82240 15 ft 1 kts 206°
2026-04-24 19:10 43.42691 -3.82244 15 ft 3 kts 199°
2026-04-24 19:10 43.42658 -3.82259 15 ft 8 kts 199°
2026-04-24 19:11 43.42607 -3.82285 15 ft 7 kts 202°
2026-04-24 19:11 43.42561 -3.82308 15 ft 7 kts 199°
2026-04-24 19:11 43.42516 -3.82330 15 ft 7 kts 201°
2026-04-24 19:11 43.42474 -3.82354 15 ft 6 kts 206°
2026-04-24 19:12 43.42460 -3.82400 15 ft 6 kts 281°
2026-04-24 19:12 43.42473 -3.82462 15 ft 7 kts 286°
2026-04-24 19:12 43.42475 -3.82508 15 ft 4 kts 258°
2026-04-24 19:12 43.42459 -3.82541 15 ft 4 kts 219°
2026-04-24 19:13 43.42452 -3.82557 15 ft 1 kts 259°
2026-04-24 19:13 43.42456 -3.82577 15 ft 0 kts 286°